User: anonymous   Login
Location: downtown San Diego
(32.7310°N, 117.1990°W)
Time: 15:26:58
(UTC-07:00)
Language:

YAOGAN 6 - Orbit

View from above orbital plane
View from above orbital plane
View from above satellite
View from above satellite

Ground track
Ground track

The orbit data is extracted from the following two-line orbital elements,

1 34839U 09021A   19111.51587824  .00000499  00000-0  21474-4 0  9996
2 34839  97.0597 138.5852 0029945  88.0169 272.4499 15.26513042555280
Epoch (UTC): 21 April 2019 12:22:51
Eccentricity: 0.0029945
inclination: 97.0597°
perigee height: 465 km
apogee height: 507 km
right ascension of ascending node: 138.5852°
argument of perigee: 88.0169°
revolutions per day: 15.26513042
mean anomaly at epoch: 272.4499°
orbit number at epoch: 55528

The dashed part of the orbit path shows where the satellite is in the earth's shadow,  

DLR